#timestamp,LO_Frequency,Hit,StdDev 
1506996015.6,286047008.8,N
1506996035.4,286047010.3,N
1506996055.2,286047010.2,N
1506996075.1,286047015.4,N
1506996076.0,286047015.4,N
1506996095.8,286047017.0,N
1506996115.6,286047019.0,N
1506996135.5,286047017.3,N
1506996155.3,286047024.8,N
1506996175.1,286047021.6,N
1506996195.9,286047020.1,N
1506996215.7,286047019.3,N
1506996235.5,286047023.0,N
1506996255.4,286047022.1,N
1506996275.2,286047021.6,N
1506996295.0,286047020.7,N
1506996295.9,286047020.7,N
1506996315.8,286047022.3,N
1506996335.6,286047020.6,N
1506996355.4,286047026.7,N
1506996375.2,286047028.0,N
1506996395.1,286047024.9,N
1506996396.0,286047024.9,N
1506996415.8,286047022.2,N
1506996435.6,286047020.7,N
1506996455.5,286047019.2,N
1506996475.3,286047019.4,N
1506996495.1,286047023.3,Y
1506996515.9,286047004.7,P
1506996535.7,286047009.2,N
1506996555.5,286047007.9,N
1506996575.4,286047008.5,N
1506996595.2,286047006.2,N
1506996615.0,286047008.3,N
1506996615.9,286047008.3,N
1506996635.8,286047010.7,N
1506996655.6,286047010.2,N
1506996675.4,286047010.1,N
1506996695.3,286047009.0,N
1506996715.1,286047007.3,N
1506996716.0,286047007.3,N
1506996735.8,286047009.0,Y
1506996755.7,286047003.8,P
1506996775.5,286047002.9,N
1506996795.3,286047002.5,N
1506996815.2,286046999.8,N
1506996835.9,286046996.6,N
1506996855.7,286046994.9,N
1506996875.5,286046994.9,N
1506996895.4,286046994.3,N
1506996915.2,286046992.1,N
1506996935.0,286046990.5,N
1506996935.9,286046990.5,N
1506996955.8,286046988.7,N
1506996975.6,286046988.2,N
1506996995.4,286046987.6,N
1506997015.3,286046987.8,N
1506997035.1,286046985.4,N
1506997036.0,286046985.4,N
1506997055.8,286046987.9,N
1506997075.7,286046988.4,N
1506997095.5,286046986.7,N
1506997115.3,286046988.4,N
1506997135.2,286046988.1,N
1506997155.9,286046983.8,N
1506997175.7,286046984.0,N
1506997195.5,286046984.9,N
1506997215.4,286046983.0,N
1506997235.2,286046981.0,N
1506997255.0,286046982.0,N
1506997255.9,286046982.0,N
1506997275.8,286046979.4,N
1506997295.6,286046981.6,N
1506997315.4,286046977.6,Y
1506997335.3,286046991.4,P
1506997355.1,286046992.7,P
1506997375.8,286046990.2,P
1506997395.7,286046990.4,Y
1506997415.5,286046999.8,P
1506997435.3,286047001.0,N
1506997455.2,286046999.2,N
1506997475.9,286046998.7,N
1506997495.7,286046999.0,N
1506997515.6,286046998.8,N
1506997535.4,286046999.5,N
1506997555.2,286046999.3,N
1506997575.1,286046996.5,N
1506997576.0,286046996.5,N
1506997595.8,286046996.6,N
1506997615.6,286046999.3,N
1506997635.5,286046999.0,N
1506997655.3,286046997.3,N
1506997675.1,286046999.1,N
1506997695.8,286047000.7,N
1506997715.7,286046998.8,N
1506997735.5,286046999.3,N
1506997755.3,286046999.6,N
1506997775.2,286046996.8,N
1506997795.9,286046998.0,N
1506997815.7,286046995.8,N
1506997835.6,286046995.3,N
1506997855.4,286046997.4,N
1506997875.2,286046997.2,N
1506997895.1,286046997.6,N
1506997896.0,286046997.6,N
1506997915.8,286046996.3,N
1506997935.6,286046995.7,N
1506997955.5,286046995.8,N
1506997975.3,286046997.7,N
1506997995.1,286046994.9,Y
1506998015.9,286046999.5,P
1506998035.7,286046991.8,P
1506998055.5,286046996.9,N
1506998075.4,286047002.8,N
1506998095.2,286047007.3,N
1506998115.0,286047008.0,N
1506998115.9,286047008.0,N
1506998135.8,286047011.7,N
1506998155.6,286047013.5,N
1506998175.4,286047016.9,N
1506998195.2,286047015.9,N
1506998215.1,286047018.3,N
1506998216.0,286047018.3,N
1506998235.8,286047019.2,N
1506998255.6,286047019.3,N
1506998275.5,286047020.1,N
1506998295.3,286047017.8,N
1506998315.1,286047020.3,N
1506998335.9,286047014.4,N
1506998355.7,286047016.2,N
1506998375.5,286047016.8,N
1506998395.4,286047020.2,N
1506998415.2,286047020.3,N
1506998435.0,286047018.1,N
1506998435.9,286047018.1,N
1506998455.8,286047021.6,N
1506998475.6,286047022.2,N
1506998495.4,286047023.3,N
1506998515.2,286047024.7,N
1506998535.1,286047020.8,N
1506998536.0,286047020.8,N
1506998555.8,286047021.7,N
1506998575.6,286047017.1,N
1506998595.5,286047018.6,Y
1506998615.3,286047001.1,P
1506998635.1,286047000.7,N
1506998655.9,286047002.8,N
1506998675.7,286047000.7,N
1506998695.5,286046998.3,N
1506998715.4,286046999.3,N
1506998735.2,286046998.2,N
1506998755.0,286047003.9,N
1506998755.9,286047003.9,N
1506998775.8,286047004.6,N
1506998795.6,286047007.1,N
1506998815.4,286047005.0,N
1506998835.3,286047005.0,N
1506998855.1,286047007.8,N
1506998856.0,286047007.8,N
1506998875.8,286047006.1,N
1506998895.7,286047003.0,N
1506998915.5,286047002.7,N
1506998935.3,286046998.1,N
1506998955.2,286047000.8,N
1506998975.9,286046997.9,N
1506998995.7,286046995.2,N
1506999015.5,286046994.0,N
1506999035.4,286046996.1,N
1506999055.2,286046996.2,N
1506999075.0,286046995.8,N
1506999075.9,286046995.8,N
1506999095.8,286046991.8,N
1506999115.6,286046993.2,N
1506999135.4,286046990.3,N
1506999155.3,286046990.8,N
1506999175.1,286046986.9,N
1506999176.0,286046986.9,N
1506999195.8,286046989.6,N
1506999215.7,286046990.8,N
1506999235.5,286046991.7,N
1506999255.3,286046990.5,N
1506999275.2,286046992.9,N
1506999295.9,286046993.2,N
1506999315.7,286046992.7,N
1506999335.5,286046993.2,N
1506999355.4,286046989.0,N
1506999375.2,286046987.5,N
1506999395.0,286046988.2,N
1506999395.9,286046988.2,N
1506999415.8,286046987.7,N
1506999435.6,286046986.9,N
1506999455.4,286046989.3,N
1506999475.3,286046989.6,N
1506999495.1,286046989.5,N
1506999515.8,286046991.5,N
1506999535.7,286046990.6,Y
1506999555.5,286047000.4,P
1506999575.3,286046999.2,N
1506999595.2,286046996.3,N
